Location: Boston
(42.3580°N, 71.0600°W)
Time: 18:11:10
(UTC-05:00)

ISS - Visible Passes

Search period start: 21 February 2018 00:00
Search period end: 03 March 2018 00:00
Orbit: 403 x 407 km, 51.6° (Epoch: 22 February)

Date Brightness Start Highest point End Pass type
(mag) Time Alt. Az. Time Alt. Az. Time Alt. Az.
23 Feb -0.5 06:01:16 10° SSE 06:02:27 12° SE 06:03:37 10° ESE visible
25 Feb -1.6 05:51:21 10° SSW 05:54:10 26° SE 05:56:59 10° ENE visible
26 Feb -0.9 05:00:14 10° SSE 05:02:07 14° SE 05:04:00 10° E visible
27 Feb -3.4 05:42:44 10° SW 05:45:58 64° SE 05:49:13 10° ENE visible
28 Feb -2.3 04:51:53 18° SSW 04:53:47 33° SE 04:56:47 10° ENE visible
01 Mar -1.2 04:02:09 17° ESE 04:02:09 17° ESE 04:03:59 10° E visible
01 Mar -3.6 05:34:50 11° WSW 05:37:52 56° NNW 05:41:07 10° NE visible
02 Mar -3.9 04:44:56 55° SW 04:45:33 80° SSE 04:48:50 10° ENE visible
